Date String (YYYY-MM-DD hh:mm:ss) UTC,Instrument flags,absolute air pressure of the measurement (hPa),sample flow rate (lpm),inlet stack bypass flow (lpm),air temperature of the measurement (°C),ambient temperature measured by the external sensor (°C),aerosol sample conditioner tube jacket temperature (°C),OPC LED temperature (°C),internal box temperature (°C),relative humidity of the measurement (%),span deviation,mass concentration of particles derived from Lorenz-Mie calculation of OPC scattering (μg/m³),mass concentration of particles derived from Lorenz-Mie calculation of OPC scattering (μg/m³),mass concentration of particles derived from Lorenz-Mie calculation of OPC scattering (μg/m³)
DateTimeUTC,F1_M11,P_M11,Q1_M11,Q2_M11,T1_M11,T2_M11,T3_M11,T4_M11,T5_M11,U1_M11,ZSPAN_M11,X0_M11,X2_M11,X1_M11
2023-11-11 02:00:00,SystemResetWarning,0831.2,5.00,000.00,025.6,024.4,000.0,034.0,026.9,6.6,0000.0,0008.29,0003.68,0003.16
2023-11-11 02:01:00,SystemResetWarning,0831.2,5.00,000.00,025.5,024.4,000.0,034.0,026.8,6.6,0000.0,0008.36,0003.68,0003.14
2023-11-11 02:02:00,SystemResetWarning,0831.3,5.00,000.00,025.5,024.3,000.0,034.0,026.9,6.7,0000.0,0008.32,0003.66,0003.13
2023-11-11 02:03:00,SystemResetWarning,0831.3,5.00,000.00,025.5,024.3,000.0,034.0,026.8,6.9,0000.0,0008.32,0003.64,0003.12
2023-11-11 02:04:00,SystemResetWarning,0831.3,5.00,000.00,025.5,024.2,000.0,034.0,026.8,7.2,0000.0,0008.17,0003.67,0003.12
2023-11-11 02:05:00,SystemResetWarning,0831.2,5.00,000.00,025.5,024.2,000.0,034.0,026.8,7.1,0000.0,0008.25,0003.68,0003.11
2023-11-11 02:06:00,SystemResetWarning,0831.3,5.00,000.00,025.5,024.1,000.0,033.9,026.8,7.0,0000.0,0008.09,0003.64,0003.07
2023-11-11 02:07:00,SystemResetWarning,0831.2,5.00,000.00,025.4,024.1,000.0,033.9,026.7,7.1,0000.0,0007.83,0003.60,0003.04
2023-11-11 02:08:00,SystemResetWarning,0831.3,5.00,000.00,025.4,024.1,000.0,033.9,026.7,7.1,0000.0,0007.59,0003.56,0003.01
2023-11-11 02:09:00,SystemResetWarning,0831.3,5.00,000.00,025.4,024.1,000.0,033.9,026.7,7.0,0000.0,0007.33,0003.49,0002.96
2023-11-11 02:10:00,SystemResetWarning,0831.3,5.00,000.00,025.4,024.1,000.0,033.9,026.7,6.9,0000.0,0007.07,0003.47,0002.95
2023-11-11 02:11:00,SystemResetWarning,0831.3,5.00,000.00,025.4,024.0,000.0,033.9,026.7,6.6,0000.0,0005.84,0003.45,0002.94
2023-11-11 02:12:00,SystemResetWarning,0831.3,5.00,000.00,025.3,024.0,000.0,033.9,026.6,6.3,0000.0,0005.70,0003.44,0002.93
2023-11-11 02:13:00,SystemResetWarning,0831.3,5.00,000.00,025.3,024.0,000.0,033.8,026.6,6.2,0000.0,0005.70,0003.44,0002.93
2023-11-11 02:14:00,SystemResetWarning,0831.3,5.00,000.00,025.3,024.0,000.0,033.8,026.6,6.2,0000.0,0005.62,0003.42,0002.90
2023-11-11 02:15:00,SystemResetWarning,0831.3,5.00,000.00,025.3,024.0,000.0,033.8,026.6,6.4,0000.0,0005.44,0003.39,0002.87
2023-11-11 02:16:00,SystemResetWarning,0831.3,5.00,000.00,025.3,024.0,000.0,033.8,026.6,6.4,0000.0,0005.14,0003.35,0002.88
2023-11-11 02:17:00,SystemResetWarning,0831.3,5.00,000.00,025.3,024.0,000.0,033.8,026.6,6.3,0000.0,0005.02,0003.33,0002.88
2023-11-11 02:18:00,SystemResetWarning,0831.3,5.00,000.00,025.3,024.0,000.0,033.8,026.6,6.1,0000.0,0005.23,0003.37,0002.89
2023-11-11 02:19:00,SystemResetWarning,0831.3,5.00,000.00,025.2,023.9,000.0,033.8,026.6,6.2,0000.0,0005.37,0003.39,0002.87
2023-11-11 02:20:00,SystemResetWarning,0831.3,5.00,000.00,025.2,023.9,000.0,033.7,026.6,6.1,0000.0,0005.59,0003.40,0002.88
2023-11-11 02:21:00,SystemResetWarning,0831.2,5.00,000.00,025.2,023.9,000.0,033.7,026.6,6.2,0000.0,0006.05,0003.41,0002.85
2023-11-11 02:22:00,SystemResetWarning,0831.3,5.00,000.00,025.2,023.9,000.0,033.7,026.6,6.3,0000.0,0006.38,0003.43,0002.84
2023-11-11 02:23:00,SystemResetWarning,0831.3,4.99,000.00,025.2,023.9,000.0,033.7,026.5,6.8,0000.0,0006.39,0003.42,0002.82
2023-11-11 02:24:00,SystemResetWarning,0831.3,5.00,000.00,025.2,023.9,000.0,033.7,026.5,7.1,0000.0,0006.38,0003.41,0002.81
2023-11-11 02:25:00,SystemResetWarning,0831.2,4.99,000.00,025.2,023.9,000.0,033.7,026.5,7.3,0000.0,0006.58,0003.44,0002.82
2023-11-11 02:26:00,SystemResetWarning,0831.3,5.00,000.00,025.2,023.8,000.0,033.7,026.5,7.3,0000.0,0006.83,0003.46,0002.81
2023-11-11 02:27:00,SystemResetWarning,0831.3,5.00,000.00,025.1,023.8,000.0,033.7,026.4,7.4,0000.0,0006.76,0003.45,0002.81
2023-11-11 02:28:00,SystemResetWarning,0831.3,5.00,000.00,025.1,023.8,000.0,033.6,026.4,7.3,0000.0,0006.80,0003.46,0002.79
2023-11-11 02:29:00,SystemResetWarning,0831.3,5.00,000.00,025.1,023.8,000.0,033.6,026.4,6.9,0000.0,0006.67,0003.42,0002.79
2023-11-11 02:30:00,SystemResetWarning,0831.3,5.00,000.00,025.1,023.8,000.0,033.6,026.4,6.9,0000.0,0006.66,0003.42,0002.80
2023-11-11 02:31:00,SystemResetWarning,0831.3,5.00,000.00,025.1,023.7,000.0,033.6,026.4,6.8,0000.0,0006.58,0003.45,0002.82
2023-11-11 02:32:00,SystemResetWarning,0831.3,5.00,000.00,025.1,023.8,000.0,033.6,026.3,6.8,0000.0,0006.32,0003.48,0002.84
2023-11-11 02:33:00,SystemResetWarning,0831.3,5.00,000.00,025.1,023.7,000.0,033.6,026.3,6.9,0000.0,0005.98,0003.45,0002.85
2023-11-11 02:34:00,SystemResetWarning,0831.3,5.00,000.00,025.0,023.7,000.0,033.6,026.4,7.0,0000.0,0005.88,0003.46,0002.85
2023-11-11 02:35:00,SystemResetWarning,0831.3,5.00,000.00,025.0,023.7,000.0,033.5,026.4,6.7,0000.0,0005.92,0003.46,0002.84
2023-11-11 02:36:00,SystemResetWarning,0831.3,5.00,000.00,025.0,023.7,000.0,033.5,026.4,6.5,0000.0,0005.93,0003.45,0002.84
2023-11-11 02:37:00,SystemResetWarning,0831.3,5.00,000.00,025.0,023.7,000.0,033.5,026.4,6.4,0000.0,0006.39,0003.46,0002.84
2023-11-11 02:38:00,SystemResetWarning,0831.3,5.00,000.00,025.0,023.7,000.0,033.5,026.3,6.3,0000.0,0007.36,0003.46,0002.83
2023-11-11 02:39:00,SystemResetWarning,0831.3,4.99,000.00,025.0,023.7,000.0,033.5,026.3,6.3,0000.0,0007.56,0003.46,0002.81
2023-11-11 02:40:00,SystemResetWarning,0831.3,5.00,000.00,025.0,023.7,000.0,033.5,026.3,6.7,0000.0,0007.88,0003.45,0002.80
2023-11-11 02:41:00,SystemResetWarning,0831.3,5.01,000.00,025.0,023.7,000.0,033.5,026.3,6.8,0000.0,0007.92,0003.45,0002.80
2023-11-11 02:42:00,SystemResetWarning,0831.3,5.00,000.00,025.0,023.6,000.0,033.5,026.3,6.7,0000.0,0008.46,0003.46,0002.79
2023-11-11 02:43:00,SystemResetWarning,0831.3,4.99,000.00,025.0,023.7,000.0,033.4,026.3,6.6,0000.0,0008.61,0003.43,0002.79
2023-11-11 02:44:00,SystemResetWarning,0831.3,5.00,000.00,024.9,023.7,000.0,033.4,026.3,6.4,0000.0,0008.74,0003.43,0002.79
2023-11-11 02:45:00,SystemResetWarning,0831.3,5.00,000.00,024.9,023.7,000.0,033.4,026.3,6.4,0000.0,0008.73,0003.45,0002.79
2023-11-11 02:46:00,SystemResetWarning,0831.3,5.00,000.00,024.9,023.6,000.0,033.4,026.3,6.5,0000.0,0009.00,0003.44,0002.80
2023-11-11 02:47:00,SystemResetWarning,0831.3,5.01,000.00,024.9,023.6,000.0,033.4,026.2,6.5,0000.0,0009.65,0003.45,0002.82
2023-11-11 02:48:00,SystemResetWarning,0831.3,5.00,000.00,024.9,023.6,000.0,033.4,026.2,6.4,0000.0,0009.95,0003.44,0002.82
2023-11-11 02:49:00,SystemResetWarning,0831.3,5.00,000.00,024.9,023.6,000.0,033.4,026.2,6.4,0000.0,0009.47,0003.47,0002.83
2023-11-11 02:50:00,SystemResetWarning,0831.3,5.00,000.00,024.9,023.5,000.0,033.4,026.2,6.1,0000.0,0009.44,0003.50,0002.85
2023-11-11 02:51:00,SystemResetWarning,0831.2,5.00,000.00,024.8,023.5,000.0,033.4,026.2,6.0,0000.0,0009.20,0003.53,0002.86
2023-11-11 02:52:00,SystemResetWarning,0831.2,5.00,000.00,024.8,023.5,000.0,033.3,026.2,6.0,0000.0,0009.20,0003.54,0002.85
2023-11-11 02:53:00,SystemResetWarning,0831.3,5.00,000.00,024.8,023.5,000.0,033.3,026.2,6.0,0000.0,0008.82,0003.55,0002.85
2023-11-11 02:54:00,SystemResetWarning,0831.2,5.00,000.00,024.8,023.5,000.0,033.3,026.1,6.0,0000.0,0008.46,0003.54,0002.87
2023-11-11 02:55:00,SystemResetWarning,0831.2,5.00,000.00,024.8,023.6,000.0,033.3,026.1,6.1,0000.0,0008.26,0003.52,0002.87
2023-11-11 02:56:00,SystemResetWarning,0831.2,5.00,000.00,024.8,023.6,000.0,033.3,026.2,6.1,0000.0,0008.26,0003.52,0002.88
2023-11-11 02:57:00,SystemResetWarning,0831.2,5.00,000.00,024.8,023.6,000.0,033.3,026.2,6.2,0000.0,0008.37,0003.56,0002.93
2023-11-11 02:58:00,SystemResetWarning,0831.1,5.00,000.00,024.8,023.6,000.0,033.3,026.2,6.2,0000.0,0008.24,0003.58,0002.94
2023-11-11 02:59:00,SystemResetWarning,0831.1,4.99,000.00,024.8,023.6,000.0,033.3,026.2,6.3,0000.0,0007.91,0003.57,0002.97
